Moab, UT

4:10 AM MST on November 22, 2019 (GMT -0700)
Canyonlands

Weather History for KCNY - May, 2019

Change the Weather History Date:

Monday, May 27, 2019

  Actual Average Record
Temperature  
Mean Temperature 57 °F 66 °F  
Max Temperature 68 °F 83 °F 97 °F (1951)
Min Temperature 45 °F 50 °F 39 °F (1929)
Degree Days  
Heating Degree Days 8 2  
Month to date heating degree days 219 127  
Since 1 July heating degree days 5789 5552  
Cooling Degree Days 0 4  
Month to date cooling degree days 12 43  
Year to date cooling degree days 14 46  
Growing Degree Days 6 (Base 50)    
Moisture  
Dew Point 38 °F    
Average Humidity 48    
Maximum Humidity 76    
Minimum Humidity 20    
Precipitation  
Precipitation 0.01 in 0.01 in 0.20 in (1929)
Month to date precipitation 0.95 0.51  
Year to date precipitation 5.94 3.13  
Sea Level Pressure  
Sea Level Pressure 29.68 in    
Wind  
Wind Speed 13 mph (SSW)    
Max Wind Speed 33 mph    
Max Gust Speed 45 mph    
Visibility 10 miles    
Events Rain , Thunderstorm    
T = Trace of Precipitation, MM = Missing Value Source: NWS Daily Summary

Daily Weather History Graph

Daily Weather History Graph

Search for Another Location

Airport or City:

Astronomy

May. 27, 2019 Rise Set
Actual Time 5:58 AM MDT 8:34 PM MDT
Civil Twilight 5:27 AM MDT 9:05 PM MDT
Nautical Twilight 4:49 AM MDT 9:43 PM MDT
Astronomical Twilight 4:05 AM MDT 10:27 PM MDT
Moon 2:38 AM MDT (5/27) 1:55 PM MDT (5/27)
Length of Visible Light 15h 37m
Length of Day
14h 35m
Last Quarter, 40% of the Moon is Illuminated
May 27
Last Quarter
Jun 3
New
Jun 10
First Quarter
Jun 17
Full
Jun 25
Last Quarter

Hourly Weather History & Observations

Time (MDT) Temp. Windchill Dew Point Humidity Pressure Visibility Wind Dir Wind Speed Gust Speed Precip Events Conditions
12:53 AM 66.0 °F - 24.1 °F 20% 29.54 in 10.0 mi SSW 12.7 mph - N/A   Partly Cloudy
1:53 AM 61.0 °F - 30.0 °F 31% 29.57 in 10.0 mi WSW 23.0 mph 34.5 mph N/A   Mostly Cloudy
2:53 AM 59.0 °F - 34.0 °F 39% 29.61 in 10.0 mi SW 21.9 mph - N/A   Overcast
3:53 AM 55.0 °F - 37.0 °F 51% 29.68 in 10.0 mi SSW 20.7 mph 38.0 mph 0.00 in Rain Light Rain
4:53 AM 53.1 °F - 43.0 °F 69% 29.69 in 10.0 mi South 9.2 mph - 0.00 in   Overcast
5:53 AM 53.1 °F - 41.0 °F 64% 29.69 in 10.0 mi SSE 11.5 mph - N/A   Overcast
6:53 AM 52.0 °F - 41.0 °F 66% 29.71 in 10.0 mi SSE 10.4 mph - N/A   Overcast
7:53 AM 54.0 °F - 42.1 °F 64% 29.71 in 10.0 mi ESE 11.5 mph - N/A   Clear
8:53 AM 57.0 °F - 41.0 °F 55% 29.70 in 10.0 mi SSE 11.5 mph 18.4 mph N/A   Mostly Cloudy
9:53 AM 57.9 °F - 39.0 °F 49% 29.69 in 10.0 mi SSE 11.5 mph - N/A   Mostly Cloudy
10:53 AM 61.0 °F - 37.0 °F 41% 29.66 in 10.0 mi SSE 15.0 mph 18.4 mph 0.00 in   Mostly Cloudy
11:53 AM 64.0 °F - 33.1 °F 31% 29.62 in 10.0 mi SSE 9.2 mph 19.6 mph N/A   Scattered Clouds
12:53 PM 66.9 °F - 32.0 °F 27% 29.57 in 10.0 mi SE 12.7 mph 24.2 mph N/A   Partly Cloudy
1:53 PM 62.1 °F - 36.0 °F 38% 29.58 in 10.0 mi South 15.0 mph - 0.00 in Rain Light Rain
2:00 PM 62.1 °F - 39.0 °F 43% 29.69 in 10.0 mi South 6.9 mph 20.7 mph 0.00 in Rain Light Rain
2:09 PM 63.0 °F - 34.0 °F 34% 29.68 in 10.0 mi SSW 6.9 mph - 0.00 in Thunderstorm Mostly Cloudy
2:36 PM 53.1 °F - 42.1 °F 66% 29.73 in 9.0 mi WSW 31.1 mph 43.7 mph 0.01 in Rain Light Rain
2:45 PM 51.1 °F - 42.1 °F 71% 29.72 in 10.0 mi West 29.9 mph 46.0 mph 0.01 in Rain Light Rain
2:53 PM 50.0 °F - 43.0 °F 77% 29.62 in 10.0 mi West 29.9 mph 43.7 mph 0.01 in Rain Light Rain
3:53 PM 53.1 °F - 42.1 °F 66% 29.71 in 10.0 mi West 17.3 mph 25.3 mph 0.00 in   Mostly Cloudy
4:53 PM 52.0 °F - 39.9 °F 63% 29.70 in 10.0 mi WNW 15.0 mph - N/A   Partly Cloudy
5:53 PM 55.0 °F - 41.0 °F 59% 29.70 in 10.0 mi NW 11.5 mph - N/A   Clear
6:53 PM 50.0 °F - 37.0 °F 61% 29.71 in 10.0 mi SW 25.3 mph 34.5 mph N/A   Partly Cloudy
7:00 PM 51.1 °F - 37.0 °F 59% 29.79 in 10.0 mi SW 19.6 mph 32.2 mph N/A   Partly Cloudy
7:53 PM 50.0 °F - 35.1 °F 57% 29.74 in 10.0 mi SW 6.9 mph - N/A   Scattered Clouds
8:53 PM 48.9 °F - 35.1 °F 59% 29.75 in 10.0 mi South 3.5 mph - N/A   Mostly Cloudy
9:53 PM 48.9 °F - 36.0 °F 61% 29.75 in 10.0 mi WSW 4.6 mph - N/A   Overcast
10:53 PM 46.0 °F 42.5 °F 39.0 °F 76% 29.76 in 10.0 mi WNW 6.9 mph - N/A   Partly Cloudy
11:53 PM 46.0 °F 42.5 °F 41.0 °F 83% 29.76 in 10.0 mi East 6.9 mph - 0.00 in Rain Light Rain